Weather reports worldwide

Advertisment
Torino/Caselle, Italy (16059): temperature & dewpoint: 17.03.2019 10:00:00 - 23.03.2019 10:00:00 (CET)Torino/Caselle, Italy (16059): wind speed: 17.03.2019 10:00:00 - 23.03.2019 10:00:00 (CET)Torino/Caselle, Italy (16059): wind direction: 17.03.2019 10:00:00 - 23.03.2019 10:00:00 (CET)Torino/Caselle, Italy (16059): reduced air pressure: 17.03.2019 10:00:00 - 23.03.2019 10:00:00 (CET)Torino/Caselle, Italy (16059): visibility: 17.03.2019 10:00:00 - 23.03.2019 10:00:00 (CET)Torino/Caselle, Italy (16059): precipitation: 17.03.2019 10:00:00 - 23.03.2019 10:00:00 (CET)
Date & Time tt [°C] td [°C] ff [km/h] ff [kn] dd ppp [hPa] vv [km] rr [mm]
23.03.2019 10:00:00 15,3 -1,7 4 2 - 1026,7 10 0,0
23.03.2019 09:00:00 12,0 -4,0 2 1 - - 10 -
23.03.2019 08:00:00 9,0 -3,0 5 3 WNW - 10 -
23.03.2019 07:00:00 5,6 -5,1 11 6 WNW 1026,7 10 -
23.03.2019 06:00:00 6,0 -5,0 9 5 WNW - 10 -
23.03.2019 05:00:00 7,0 -5,0 9 5 WNW - 10 -
23.03.2019 04:00:00 5,0 -4,4 5 3 WNW 1026,9 10 0,0
23.03.2019 03:00:00 7,0 -4,0 5 3 WNW - 10 -
23.03.2019 02:00:00 8,0 -4,0 9 5 WNW - 10 -
23.03.2019 01:00:00 9,5 -4,2 8 4 NNW 1027,5 10 -
23.03.2019 00:00:00 10,0 -3,0 9 5 NNW - 10 -
22.03.2019 23:00:00 11,0 -3,0 5 3 N - 10 -
22.03.2019 22:00:00 8,7 -1,5 5 3 NE 1027,4 10 0,0
22.03.2019 21:00:00 11,0 -1,0 11 6 W - 10 -
22.03.2019 20:00:00 14,0 -3,0 5 3 WSW - 10 -
22.03.2019 19:00:00 17,1 -5,8 2 1 S 1027,0 10 -
22.03.2019 18:00:00 19,0 -3,0 2 1 ENE - 10 -
22.03.2019 17:00:00 19,0 -4,0 8 4 ENE - 9 -
22.03.2019 16:00:00 19,0 -3,6 8 4 ENE 1028,0 9 0,0
22.03.2019 15:00:00 18,0 -2,0 8 4 E - 9 -
22.03.2019 14:00:00 18,0 -5,0 5 3 SE - 8 -
22.03.2019 13:00:00 16,8 -1,6 4 2 - 1030,1 10 -
22.03.2019 12:00:00 15,0 -4,0 8 4 SSE - 10 -
22.03.2019 11:00:00 14,0 -4,0 8 4 SSW - 10 -
22.03.2019 10:00:00 12,2 -4,1 9 5 SSW 1031,4 10 0,0
22.03.2019 09:00:00 10,0 -2,0 2 1 - - 10 -
22.03.2019 08:00:00 5,0 -4,0 5 3 WNW - 10 -
22.03.2019 07:00:00 5,0 -5,1 9 5 WNW 1031,0 10 -
22.03.2019 06:00:00 3,0 -5,0 5 3 WNW - 10 -
22.03.2019 05:00:00 3,0 -5,0 2 1 - - 10 -
22.03.2019 04:00:00 4,2 -4,6 4 2 - 1031,1 10 0,0
22.03.2019 03:00:00 5,0 -4,0 9 5 WNW - 10 -
22.03.2019 02:00:00 6,0 -3,0 8 4 NW - 10 -
22.03.2019 01:00:00 6,5 -3,5 8 4 NNW 1031,4 10 -
22.03.2019 00:00:00 7,0 -3,0 11 6 N - 10 -
21.03.2019 23:00:00 7,0 -2,0 9 5 N - 10 -
21.03.2019 22:00:00 6,8 -2,2 5 3 NE 1030,8 10 0,0
21.03.2019 21:00:00 10,0 -2,0 13 7 W - 10 -
21.03.2019 20:00:00 11,0 -4,0 4 2 - - 10 -
21.03.2019 19:00:00 12,4 -5,6 4 2 SE 1030,0 10 -
21.03.2019 18:00:00 15,0 -4,0 5 3 SE - 10 -
21.03.2019 17:00:00 15,0 -4,0 5 3 ESE - 10 -
21.03.2019 16:00:00 15,0 -2,0 8 4 ESE 1030,4 10 0,0
21.03.2019 15:00:00 14,0 -2,0 8 4 ENE - 10 -
21.03.2019 14:00:00 14,0 -2,0 8 4 - - 10 -
21.03.2019 13:00:00 12,4 -3,8 5 3 - 1032,8 10 -
21.03.2019 12:00:00 11,0 -4,0 8 4 E - 10 -
21.03.2019 11:00:00 10,0 -3,0 5 3 - - 10 -
21.03.2019 10:00:00 9,9 -3,4 5 3 ESE 1034,5 10 0,0
21.03.2019 09:00:00 8,0 -2,0 5 3 N - 10 -
21.03.2019 08:00:00 5,0 -2,0 8 4 NW - 10 -
21.03.2019 07:00:00 2,8 -3,2 8 4 WNW 1033,3 10 -
21.03.2019 06:00:00 3,0 -3,0 8 4 NW - 10 -
21.03.2019 05:00:00 3,0 -3,0 5 3 WNW - 10 -
21.03.2019 04:00:00 3,4 -2,8 8 4 W 1032,7 10 0,0
21.03.2019 03:00:00 4,0 -3,0 5 3 NW - 10 -
21.03.2019 02:00:00 4,0 -3,0 2 1 - - 10 -
21.03.2019 01:00:00 5,5 -3,0 5 3 NW 1032,2 10 -
21.03.2019 00:00:00 6,0 -3,0 8 4 NW - 10 -
20.03.2019 23:00:00 6,0 -2,0 8 4 NW - 10 -
20.03.2019 22:00:00 6,1 -2,4 8 4 N 1030,9 10 0,0
20.03.2019 21:00:00 9,0 -4,0 4 2 NW - 10 -
20.03.2019 20:00:00 9,0 -4,0 5 3 ENE - 10 -
20.03.2019 19:00:00 10,4 -4,3 8 4 E 1029,1 10 -
20.03.2019 18:00:00 12,0 -2,0 8 4 E - 10 -
20.03.2019 17:00:00 13,0 -2,0 9 5 ESE - 10 -
20.03.2019 16:00:00 12,6 -2,5 8 4 NE 1028,7 10 0,0
20.03.2019 15:00:00 12,0 -2,0 8 4 E - 10 -
20.03.2019 14:00:00 12,0 -2,0 9 5 SE - 10 -
20.03.2019 13:00:00 11,6 -2,2 9 5 NNW 1030,5 10 -
20.03.2019 12:00:00 11,0 -3,0 8 4 ESE - 10 -
20.03.2019 11:00:00 10,0 -2,0 8 4 - - 10 -
20.03.2019 10:00:00 9,1 -1,8 4 2 - 1031,3 10 0,0
20.03.2019 09:00:00 7,0 -1,0 4 2 ENE - 10 -
20.03.2019 08:00:00 5,0 -1,0 4 2 - - 10 -
20.03.2019 07:00:00 4,0 -3,9 4 2 - 1029,7 10 -
20.03.2019 06:00:00 5,0 -3,0 5 3 WNW - 10 -
20.03.2019 05:00:00 5,0 -3,0 9 5 WNW - 10 -
20.03.2019 04:00:00 4,0 -2,8 4 2 - 1028,6 10 0,0
20.03.2019 03:00:00 3,0 -4,0 4 2 - - 10 -
20.03.2019 02:00:00 4,0 -4,0 9 5 WNW - 10 -
20.03.2019 01:00:00 5,1 -4,6 8 4 NW 1027,8 10 -
20.03.2019 00:00:00 5,0 -4,0 8 4 NW - 10 -
19.03.2019 23:00:00 6,0 -5,0 8 4 NNW - 10 -
19.03.2019 22:00:00 6,5 -4,6 5 3 N 1025,7 10 0,0
19.03.2019 21:00:00 8,0 -5,0 5 3 W - 10 -
19.03.2019 20:00:00 9,0 -6,0 9 5 SE - 10 -
19.03.2019 19:00:00 9,6 -5,5 8 4 E 1023,3 10 -
19.03.2019 18:00:00 12,0 -7,0 8 4 E - 10 -
19.03.2019 17:00:00 13,0 -8,0 4 2 - - 10 -
19.03.2019 16:00:00 12,7 -8,5 8 4 - 1021,9 10 0,0
19.03.2019 15:00:00 13,0 -6,0 11 6 - - 10 -
19.03.2019 14:00:00 13,0 -7,0 11 6 ENE - 10 -
19.03.2019 13:00:00 12,1 -7,6 8 4 - 1022,7 10 -
19.03.2019 12:00:00 11,0 -1,0 9 5 E - 10 -
19.03.2019 11:00:00 10,0 -2,0 8 4 SE - 10 -
19.03.2019 10:00:00 8,7 0,3 4 2 - 1022,7 10 0,0
19.03.2019 09:00:00 7,0 -2,0 2 1 - - 10 -
19.03.2019 08:00:00 4,0 -5,0 9 5 NW - 10 -
19.03.2019 07:00:00 2,1 -5,7 11 6 WNW 1021,4 10 -
19.03.2019 06:00:00 3,0 -5,0 5 3 NW - 10 -
19.03.2019 05:00:00 3,0 -4,0 8 4 NW - 10 -
19.03.2019 04:00:00 3,4 -1,9 4 2 - 1021,0 10 0,0
19.03.2019 03:00:00 5,0 0,0 11 6 NE - 10 -
19.03.2019 02:00:00 2,0 -5,0 13 7 N - 10 -
19.03.2019 01:00:00 5,8 -6,8 13 7 N 1020,7 10 -
19.03.2019 00:00:00 7,0 -9,0 4 2 - - 10 -
18.03.2019 23:00:00 6,0 -8,0 11 6 ESE - 10 -
18.03.2019 22:00:00 8,8 -9,1 8 4 SSW 1018,7 10 0,0
18.03.2019 21:00:00 9,0 -10,0 4 2 - - 10 -
18.03.2019 20:00:00 10,0 -8,0 11 6 NE - 10 -
18.03.2019 19:00:00 10,8 -8,0 15 8 ENE 1015,9 10 -
18.03.2019 18:00:00 14,0 -5,0 15 8 E - 10 -
18.03.2019 17:00:00 15,0 -8,0 13 7 ENE - 10 -
18.03.2019 16:00:00 15,0 -7,9 15 8 E 1013,5 10 0,0
18.03.2019 15:00:00 16,0 -6,0 15 8 E - 10 -
18.03.2019 14:00:00 16,0 -6,0 9 5 - - 10 -
18.03.2019 13:00:00 14,8 -10,0 9 5 ESE 1014,2 10 -
18.03.2019 12:00:00 15,0 -10,0 5 3 S - 10 -
18.03.2019 11:00:00 13,0 -4,0 15 8 SE - 10 -
18.03.2019 10:00:00 11,9 -4,9 4 2 - 1013,9 10 0,0
18.03.2019 09:00:00 7,0 -2,0 4 2 - - 10 -
18.03.2019 08:00:00 4,0 -4,0 8 4 NE - 10 -
18.03.2019 07:00:00 9,7 -11,2 13 7 NW 1011,6 10 -
18.03.2019 06:00:00 9,0 -11,0 15 8 NNW - 10 -
18.03.2019 05:00:00 8,0 -10,0 11 6 NNW - 10 -
18.03.2019 04:00:00 11,1 -12,0 16 9 NW 1009,9 10 0,0
18.03.2019 03:00:00 10,0 -9,0 16 9 NW - 10 -
18.03.2019 02:00:00 10,0 -6,0 15 8 W - 7 -
18.03.2019 01:00:00 8,3 8,2 5 3 WSW 1009,8 6 -
18.03.2019 00:00:00 9,0 9,0 5 3 NW - 7 -
17.03.2019 23:00:00 10,0 9,0 8 4 NNW - 7 -
17.03.2019 22:00:00 9,7 9,4 5 3 N 1010,2 7 0,0
17.03.2019 21:00:00 10,0 10,0 8 4 NNW - 7 -
17.03.2019 20:00:00 10,0 9,0 8 4 NNE - 7 -
17.03.2019 19:00:00 10,2 9,6 8 4 NE 1011,1 6 -
17.03.2019 18:00:00 10,0 10,0 9 5 ENE - 7 -
17.03.2019 17:00:00 11,0 10,0 11 6 E - 7 -
17.03.2019 16:00:00 11,3 9,7 11 6 E 1012,3 8 0,0
17.03.2019 15:00:00 11,0 9,0 9 5 E - 8 -
17.03.2019 14:00:00 11,0 9,0 9 5 ENE - 10 -
17.03.2019 13:00:00 11,0 8,5 9 5 ENE 1014,6 10 -
17.03.2019 12:00:00 10,0 8,0 8 4 E - 10 -
17.03.2019 11:00:00 11,0 8,0 4 2 - - 10 -
17.03.2019 10:00:00 9,8 7,7 2 1 - 1015,8 10 0,0

tt = temperature
td = dewpoint
ff = wind speed
dd = wind direction
ppp = reduced air pressure
vv = visibility
rr = precipitation

Next stations